QPF
0.00 0.00 0.00 0.00 0.00 0.00 0.00 0.00 0.00 0.00 0.00 0.00 0.00 0.00 0.00 0.00 0.00 0.00 0.00 0.00 0.00 0.00 0.00 0.00 0.00 0.00 0.00 0.00 0.00 0.00 0.00 0.00 0.00 0.00 0.00 0.02 0.02 0.04 0.10 0.25 0.24 0.16 0.17 0.12
0.00 0.00 0.00 0.00 0.00 0.00 0.00 0.00 0.00 0.00 0.00 0.00 0.00 0.00 0.00 0.00 0.00 0.00 0.00 0.00 0.00 0.00 0.00 0.00 0.00 0.00 0.00 0.00 0.00 0.00 0.00 0.00 0.00 0.00 0.00 0.00 0.02 0.04 0.12 0.19 0.23 0.12 0.13 0.11
0.00 0.00 0.00 0.00 0.00 0.00 0.00 0.00 0.00 0.00 0.00 0.00 0.00 0.00 0.00 0.00 0.00 0.00 0.00 0.00 0.00 0.00 0.00 0.00 0.00 0.00 0.00 0.00 0.00 0.00 0.00 0.00 0.00 0.00 0.00 0.01 0.06 0.05 0.13 0.15 0.09 0.08 0.10 0.17
0.00 0.00 0.00 0.00 0.00 0.00 0.00 0.00 0.00 0.00 0.00 0.00 0.00 0.00 0.00 0.00 0.00 0.00 0.00 0.00 0.00 0.00 0.00 0.00 0.00 0.00 0.00 0.00 0.00 0.00 0.00 0.00 0.00 0.00 0.00 0.00 0.00 0.00 0.05 0.13 0.16 0.10 0.12 0.15
0.00 0.00 0.00 0.00 0.00 0.00 0.00 0.00 0.00 0.00 0.00 0.00 0.00 0.00 0.00 0.00 0.00 0.00 0.00 0.00 0.00 0.00 0.00 0.00 0.00 0.00 0.00 0.00 0.00 0.00 0.00 0.00 0.00 0.00 0.00 0.00 0.01 0.04 0.08 0.09 0.09 0.08 0.11 0.03
0.00 0.00 0.00 0.00 0.00 0.00 0.00 0.00 0.00 0.00 0.00 0.00 0.00 0.00 0.00 0.00 0.00 0.00 0.00 0.00 0.00 0.00 0.00 0.00 0.00 0.00 0.00 0.00 0.00 0.00 0.00 0.00 0.00 0.00 0.00 0.01 0.04 0.10 0.10 0.07 0.03 0.04 0.02 0.01
0.00 0.00 0.00 0.00 0.00 0.00 0.00 0.00 0.00 0.00 0.00 0.00 0.00 0.00 0.00 0.00 0.00 0.00 0.00 0.00 0.00 0.00 0.00 0.00 0.00 0.00 0.00 0.00 0.00 0.00 0.00 0.00 0.00 0.00 0.00 0.01 0.01 0.02 0.05 0.06 0.05 0.00 0.01 0.01
0.00 0.00 0.00 0.00 0.00 0.00 0.00 0.00 0.00 0.00 0.00 0.00 0.00 0.00 0.00 0.00 0.00 0.00 0.00 0.00 0.00 0.00 0.00 0.00 0.00 0.00 0.00 0.00 0.00 0.00 0.00 0.00 0.00 0.00 0.00 0.00 0.02 0.02 0.01 0.00 0.00 0.00 0.00 0.00
0.00 0.00 0.00 0.00 0.00 0.00 0.00 0.00 0.00 0.00 0.00 0.00 0.00 0.00 0.00 0.00 0.00 0.00 0.00 0.00 0.00 0.00 0.00 0.00 0.00 0.00 0.00 0.00 0.00 0.00 0.00 0.00 0.00 0.00 0.00 0.00 0.00 0.00 0.00 0.00 0.00 0.00 0.00 0.00
0.00 0.00 0.00 0.00 0.00 0.00 0.00 0.00 0.00 0.00 0.00 0.00 0.00 0.00 0.00 0.00 0.00 0.00 0.00 0.00 0.00 0.00 0.00 0.00 0.00 0.00 0.00 0.00 0.00 0.00 0.00 0.00 0.00 0.00 0.00 0.00 0.00 0.00 0.00 0.00 0.00 0.00 0.00 0.00
0.00 0.00 0.00 0.00 0.00 0.00 0.00 0.00 0.00 0.00 0.00 0.00 0.00 0.00 0.00 0.00 0.00 0.00 0.00 0.00 0.00 0.00 0.00 0.00 0.00 0.00 0.00 0.00 0.00 0.00 0.00 0.00 0.00 0.00 0.00 0.00 0.00 0.00 0.00 0.00 0.00 0.00 0.00 0.00
0.00 0.00 0.00 0.00 0.00 0.00 0.00 0.00 0.00 0.00 0.00 0.00 0.00 0.00 0.00 0.00 0.00 0.00 0.00 0.00 0.00 0.00 0.00 0.00 0.00 0.00 0.00 0.00 0.00 0.00 0.00 0.00 0.00 0.00 0.00 0.00 0.00 0.00 0.00 0.00 0.00 0.00 0.00 0.00
0.00 0.00 0.00 0.00 0.00 0.00 0.00 0.00 0.00 0.00 0.00 0.00 0.00 0.00 0.00 0.00 0.00 0.00 0.00 0.00 0.00 0.00 0.00 0.00 0.00 0.00 0.00 0.00 0.00 0.00 0.00 0.00 0.00 0.00 0.00 0.00 0.00 0.00 0.00 0.00 0.00 0.00 0.00 0.00
0.00 0.00 0.00 0.00 0.00 0.00 0.00 0.00 0.00 0.00 0.00 0.00 0.00 0.00 0.00 0.00 0.00 0.00 0.00 0.00 0.00 0.00 0.00 0.00 0.00 0.00 0.00 0.00 0.00 0.00 0.00 0.00 0.00 0.00 0.00 0.00 0.00 0.00 0.00 0.00 0.00 0.00 0.00 0.00
0.00 0.00 0.00 0.00 0.00 0.00 0.00 0.00 0.00 0.00 0.00 0.00 0.00 0.00 0.00 0.00 0.00 0.00 0.00 0.00 0.00 0.00 0.00 0.00 0.00 0.00 0.00 0.00 0.00 0.00 0.00 0.00 0.00 0.00 0.00 0.00 0.00 0.00 0.00 0.00 0.00 0.00 0.00 0.00
0.01 0.00 0.00 0.00 0.00 0.00 0.00 0.00 0.00 0.00 0.00 0.00 0.00 0.00 0.00 0.00 0.00 0.00 0.00 0.00 0.00 0.00 0.00 0.00 0.00 0.00 0.00 0.00 0.00 0.00 0.00 0.00 0.00 0.00 0.00 0.00 0.00 0.00 0.00 0.00 0.00 0.00 0.00 0.00
0.00 0.00 0.00 0.00 0.00 0.00 0.00 0.00 0.00 0.00 0.00 0.00 0.00 0.00 0.00 0.00 0.00 0.00 0.00 0.00 0.00 0.00 0.00 0.00 0.00 0.00 0.00 0.00 0.00 0.00 0.00 0.00 0.00 0.00 0.00 0.00 0.00 0.00 0.00 0.00 0.00 0.00 0.00 0.00
0.00 0.00 0.00 0.00 0.00 0.00 0.00 0.00 0.00 0.00 0.00 0.00 0.00 0.00 0.00 0.00 0.00 0.00 0.00 0.00 0.00 0.00 0.00 0.00 0.00 0.00 0.00 0.00 0.00 0.00 0.00 0.00 0.00 0.00 0.00 0.00 0.00 0.00 0.00 0.00 0.00 0.00 0.00 0.00
0.00 0.00 0.00 0.00 0.00 0.00 0.00 0.00 0.00 0.00 0.00 0.00 0.00 0.00 0.00 0.00 0.00 0.00 0.00 0.00 0.00 0.00 0.00 0.00 0.00 0.00 0.00 0.00 0.00 0.00 0.00 0.00 0.00 0.00 0.00 0.00 0.00 0.00 0.00 0.00 0.00 0.00 0.00 0.00
0.00 0.00 0.00 0.00 0.00 0.00 0.00 0.00 0.00 0.00 0.00 0.00 0.00 0.00 0.00 0.00 0.00 0.00 0.00 0.00 0.00 0.00 0.00 0.00 0.00 0.00 0.00 0.00 0.00 0.00 0.00 0.00 0.00 0.00 0.00 0.00 0.00 0.00 0.00 0.00 0.00 0.00 0.00 0.00
0.00 0.00 0.00 0.00 0.00 0.00 0.00 0.00 0.00 0.00 0.00 0.00 0.00 0.00 0.00 0.00 0.00 0.00 0.00 0.00 0.00 0.00 0.00 0.00 0.00 0.00 0.00 0.00 0.00 0.00 0.00 0.00 0.00 0.00 0.00 0.00 0.00 0.00 0.00 0.00 0.00 0.00 0.00 0.00
0.00 0.00 0.00 0.00 0.00 0.00 0.00 0.00 0.00 0.00 0.00 0.00 0.00 0.00 0.00 0.00 0.00 0.00 0.00 0.00 0.00 0.00 0.00 0.00 0.00 0.00 0.00 0.00 0.00 0.00 0.00 0.00 0.00 0.00 0.00 0.00 0.00 0.00 0.00 0.00 0.00 0.00 0.00 0.00
0.00 0.00 0.00 0.00 0.00 0.00 0.00 0.00 0.00 0.00 0.00 0.00 0.00 0.00 0.00 0.00 0.00 0.00 0.00 0.00 0.00 0.00 0.00 0.00 0.00 0.00 0.00 0.00 0.00 0.00 0.00 0.00 0.00 0.00 0.00 0.00 0.00 0.00 0.00 0.00 0.00 0.00 0.00 0.00
0.00 0.00 0.00 0.00 0.00 0.00 0.00 0.00 0.00 0.00 0.00 0.00 0.00 0.00 0.00 0.00 0.00 0.00 0.00 0.00 0.00 0.00 0.00 0.00 0.00 0.00 0.00 0.00 0.00 0.00 0.00 0.00 0.00 0.00 0.00 0.00 0.00 0.00 0.00 0.00 0.00 0.00 0.00 0.00
0.00 0.00 0.00 0.00 0.00 0.00 0.00 0.00 0.00 0.00 0.00 0.00 0.00 0.00 0.00 0.00 0.00 0.00 0.00 0.00 0.00 0.00 0.00 0.00 0.00 0.00 0.00 0.00 0.00 0.00 0.00 0.00 0.00 0.00 0.00 0.00 0.00 0.00 0.00 0.00 0.00 0.00 0.00 0.00
0.00 0.00 0.00 0.00 0.00 0.00 0.00 0.00 0.00 0.00 0.00 0.00 0.00 0.00 0.00 0.00 0.00 0.00 0.00 0.00 0.00 0.00 0.00 0.00 0.00 0.00 0.00 0.00 0.00 0.00 0.00 0.00 0.00 0.00 0.00 0.00 0.00 0.00 0.00 0.00 0.00 0.00 0.00 0.00
MSLP
1011.15 1011.95 1011.86 1012.15 1012.50 1012.90 1013.04 1013.16 1012.93 1011.97 1010.96 1011.08 1010.38 1009.81 1009.41 1008.80 1008.97 1009.32 1009.58 1010.05 1010.52 1011.06 1011.25 1011.24 1011.22 1011.28 1011.31 1011.36 1011.34 1011.29 1011.29 1011.03 1011.22 1011.57 1011.89 1012.07 1012.02 1012.07 1012.04 1012.54 1012.72 1013.28 1013.83 1013.67
1011.88 1011.26 1011.47 1012.17 1012.59 1012.80 1013.03 1013.10 1012.77 1012.04 1010.99 1011.07 1010.38 1009.46 1008.81 1008.62 1008.21 1008.11 1008.65 1009.44 1010.09 1010.94 1011.32 1011.42 1011.34 1011.47 1011.41 1011.45 1011.37 1011.18 1011.06 1011.08 1011.12 1011.28 1011.37 1011.37 1011.48 1011.45 1011.71 1012.16 1012.29 1012.58 1013.07 1013.84
1011.08 1011.06 1010.44 1011.67 1012.08 1012.49 1012.46 1012.56 1012.50 1012.34 1011.45 1011.04 1010.80 1009.07 1008.45 1007.73 1007.60 1007.73 1008.15 1008.72 1009.62 1010.18 1011.01 1011.48 1011.61 1011.58 1011.43 1011.51 1011.52 1011.34 1011.01 1010.95 1010.96 1011.08 1011.21 1011.31 1011.41 1011.53 1011.77 1011.89 1012.12 1012.26 1012.53 1013.47
1010.72 1010.49 1010.66 1011.37 1011.48 1011.80 1011.89 1011.42 1011.80 1012.17 1012.46 1012.12 1011.52 1010.42 1008.95 1007.84 1007.74 1008.07 1008.69 1009.29 1009.77 1010.31 1011.07 1011.53 1011.61 1011.48 1011.42 1011.51 1011.46 1011.29 1011.02 1010.96 1010.89 1010.89 1011.06 1011.23 1011.26 1011.39 1011.83 1011.99 1012.13 1012.61 1013.06 1013.53
1009.15 1009.41 1009.77 1010.31 1010.08 1010.83 1010.72 1010.91 1011.45 1012.00 1012.54 1012.58 1012.33 1012.46 1008.69 1008.49 1008.12 1008.40 1009.23 1009.66 1010.10 1010.57 1010.93 1011.43 1011.57 1011.43 1011.33 1011.25 1011.22 1010.96 1010.93 1010.73 1010.65 1010.88 1010.98 1011.33 1011.63 1011.86 1011.97 1012.16 1012.73 1012.89 1013.61 1013.42
1009.03 1008.70 1008.85 1008.98 1008.96 1009.60 1009.92 1011.00 1011.97 1012.76 1013.25 1013.14 1012.25 1012.20 1009.31 1008.63 1007.97 1008.33 1009.23 1010.02 1010.30 1010.73 1011.07 1011.40 1011.44 1011.35 1011.32 1011.25 1010.94 1010.92 1011.16 1011.14 1010.94 1011.09 1011.20 1011.45 1011.78 1012.11 1012.44 1012.65 1012.68 1012.91 1013.42 1013.49
1008.87 1008.42 1008.25 1008.22 1008.69 1009.02 1009.90 1011.00 1012.78 1013.76 1014.23 1013.29 1012.36 1012.31 1009.17 1007.81 1007.59 1007.93 1008.61 1009.77 1010.52 1010.87 1011.08 1011.21 1011.33 1011.41 1011.63 1011.21 1011.16 1011.42 1011.51 1011.49 1011.36 1011.38 1011.37 1011.62 1012.01 1012.35 1012.50 1012.74 1012.89 1013.04 1013.17 1013.43
1008.90 1008.25 1007.62 1007.19 1007.45 1008.18 1009.35 1010.42 1012.00 1013.13 1013.97 1013.31 1012.54 1011.20 1008.04 1007.08 1007.15 1007.35 1007.93 1009.14 1010.48 1011.01 1011.08 1011.15 1011.37 1011.48 1011.61 1011.25 1011.56 1011.79 1011.83 1011.91 1011.83 1011.73 1011.96 1011.99 1012.26 1012.57 1012.82 1012.95 1013.10 1013.01 1013.09 1013.27
1008.87 1008.16 1006.78 1006.20 1006.47 1007.46 1008.74 1010.00 1010.65 1012.08 1013.59 1013.37 1011.63 1009.62 1007.36 1007.02 1007.41 1007.76 1008.39 1009.27 1010.12 1010.89 1011.10 1011.33 1011.51 1011.61 1011.48 1011.56 1011.85 1012.08 1012.11 1012.36 1012.38 1012.33 1012.37 1012.51 1012.53 1012.75 1012.86 1013.09 1013.24 1013.22 1013.00 1013.12
1008.82 1008.47 1007.22 1006.36 1006.33 1007.11 1007.63 1008.89 1010.52 1011.93 1012.96 1012.85 1010.95 1009.71 1007.76 1006.79 1007.70 1008.45 1008.93 1009.32 1009.99 1010.77 1011.25 1011.44 1011.61 1011.77 1011.63 1011.88 1012.06 1012.40 1012.40 1012.67 1012.80 1012.79 1012.82 1012.96 1012.93 1013.01 1013.02 1013.18 1013.31 1013.16 1013.11 1013.16
1010.51 1009.40 1008.23 1007.18 1006.42 1006.93 1007.84 1008.61 1009.73 1010.83 1011.50 1011.68 1010.79 1008.07 1006.13 1006.19 1006.67 1007.73 1008.42 1009.15 1009.62 1010.37 1011.06 1011.37 1011.62 1011.79 1011.78 1012.10 1012.31 1012.72 1012.77 1012.96 1013.19 1013.19 1013.19 1013.24 1013.37 1013.44 1013.54 1013.62 1013.55 1013.44 1013.33 1013.40
1011.48 1011.07 1009.40 1007.73 1007.00 1006.45 1006.97 1007.67 1008.65 1009.93 1010.90 1010.98 1010.22 1007.53 1005.89 1005.84 1005.93 1007.07 1008.39 1009.00 1009.73 1010.26 1010.87 1011.40 1011.65 1011.84 1012.07 1012.27 1012.57 1012.99 1013.11 1013.19 1013.48 1013.52 1013.55 1013.65 1013.78 1013.87 1013.95 1014.01 1013.77 1013.70 1013.70 1013.80
1012.42 1011.94 1010.89 1009.06 1008.45 1008.25 1008.36 1008.64 1008.64 1009.15 1009.53 1009.52 1009.32 1006.98 1005.75 1005.66 1006.25 1007.14 1008.34 1009.17 1009.71 1010.34 1010.81 1011.35 1011.75 1011.88 1012.16 1012.32 1012.73 1013.17 1013.37 1013.38 1013.64 1013.78 1013.90 1014.01 1014.14 1014.16 1014.37 1014.29 1014.06 1014.20 1014.24 1014.31
1012.94 1012.96 1012.42 1011.65 1011.26 1011.63 1010.97 1010.65 1010.49 1010.06 1009.05 1008.17 1006.94 1006.56 1005.82 1005.85 1006.59 1007.71 1008.38 1009.20 1009.67 1010.04 1010.47 1010.97 1011.50 1011.69 1012.11 1012.35 1012.66 1013.23 1013.57 1013.64 1013.82 1014.05 1014.24 1014.41 1014.64 1014.71 1014.75 1014.84 1014.91 1014.79 1014.83 1015.00
1013.42 1013.42 1013.29 1013.02 1013.22 1012.42 1012.64 1012.08 1010.65 1010.37 1009.21 1007.03 1006.65 1005.88 1005.69 1005.57 1006.11 1007.14 1007.86 1008.73 1009.55 1009.86 1010.08 1010.38 1010.92 1011.39 1011.96 1012.35 1012.57 1013.19 1013.65 1013.85 1014.04 1014.39 1014.68 1014.83 1014.98 1015.21 1015.26 1015.42 1015.49 1015.57 1015.65 1015.77
1013.66 1013.89 1013.96 1013.69 1013.48 1012.54 1012.86 1012.20 1010.66 1009.83 1008.96 1006.99 1006.08 1004.68 1004.62 1004.63 1005.25 1006.27 1007.03 1007.82 1008.41 1008.90 1009.41 1009.86 1010.37 1010.81 1011.64 1012.05 1012.45 1013.01 1013.63 1014.01 1014.25 1014.63 1015.09 1015.37 1015.47 1015.64 1016.07 1016.22 1016.19 1016.21 1016.40 1016.53
1014.48 1014.78 1015.08 1014.83 1013.94 1013.16 1012.12 1009.51 1009.29 1009.07 1007.92 1006.86 1005.18 1004.02 1004.09 1004.22 1004.71 1005.24 1005.97 1006.65 1007.04 1007.66 1008.39 1009.04 1009.62 1010.16 1011.07 1011.71 1012.21 1012.80 1013.51 1014.11 1014.46 1014.90 1015.46 1015.76 1015.93 1016.22 1016.49 1016.77 1016.92 1017.22 1017.30 1017.37
1014.62 1015.37 1015.92 1016.25 1015.18 1013.07 1009.34 1008.47 1008.27 1008.00 1006.91 1006.12 1005.07 1004.27 1003.74 1003.57 1003.48 1003.64 1004.21 1004.94 1005.75 1006.52 1007.23 1008.07 1008.86 1009.63 1010.53 1011.34 1011.96 1012.61 1013.40 1014.09 1014.57 1015.13 1015.61 1015.98 1016.22 1016.53 1016.88 1017.26 1017.71 1018.10 1018.38 1018.49
1013.99 1015.32 1016.51 1016.64 1015.54 1012.60 1010.21 1008.63 1007.82 1007.09 1005.83 1005.57 1005.00 1004.23 1003.47 1003.25 1003.25 1002.95 1003.00 1003.34 1003.75 1004.47 1005.55 1006.72 1007.94 1008.97 1009.94 1010.93 1011.58 1012.41 1013.30 1013.97 1014.53 1015.07 1015.60 1016.02 1016.34 1016.82 1017.39 1018.13 1018.62 1018.93 1019.27 1019.61
1014.54 1014.89 1015.90 1016.48 1015.59 1013.21 1009.99 1008.42 1007.03 1006.64 1006.49 1005.04 1004.76 1004.47 1003.88 1003.44 1003.33 1002.51 1002.03 1002.33 1003.08 1003.93 1004.91 1006.12 1007.36 1008.49 1009.53 1010.46 1011.22 1012.13 1013.04 1013.74 1014.29 1014.81 1015.43 1015.99 1016.54 1017.07 1017.90 1018.66 1019.19 1019.69 1020.01 1020.44
1014.81 1015.31 1015.37 1015.35 1014.44 1012.31 1010.25 1008.49 1007.74 1007.03 1006.85 1005.43 1005.77 1005.68 1004.49 1004.00 1003.83 1003.11 1002.09 1002.10 1002.22 1003.08 1004.52 1005.53 1006.73 1007.78 1008.84 1009.97 1010.79 1011.76 1012.71 1013.34 1013.90 1014.63 1015.34 1016.13 1016.77 1017.56 1018.26 1018.93 1019.52 1020.21 1020.79 1021.17
1013.61 1014.24 1014.40 1014.36 1013.39 1011.46 1009.23 1008.16 1007.94 1007.37 1006.36 1006.35 1005.72 1005.84 1004.72 1003.83 1003.30 1002.87 1002.51 1002.06 1002.42 1003.13 1004.21 1005.07 1006.12 1007.20 1008.41 1009.48 1010.29 1011.24 1012.24 1012.92 1013.65 1014.57 1015.40 1016.31 1017.21 1017.91 1018.68 1019.30 1020.13 1020.70 1021.30 1021.96
1012.26 1011.46 1011.90 1011.71 1010.44 1009.32 1008.83 1008.40 1007.11 1007.03 1006.51 1005.71 1005.81 1005.10 1004.58 1003.65 1003.24 1002.95 1002.43 1001.97 1002.30 1002.76 1003.62 1004.69 1005.74 1006.86 1008.07 1009.12 1009.79 1010.61 1011.73 1012.65 1013.58 1014.54 1015.53 1016.43 1017.33 1018.21 1018.99 1019.69 1020.39 1021.03 1021.47 1021.98
1010.83 1010.53 1010.80 1010.39 1009.51 1008.81 1008.21 1007.61 1007.03 1006.40 1006.25 1005.66 1004.90 1004.41 1003.52 1003.14 1002.69 1002.43 1002.02 1001.63 1001.92 1002.81 1003.55 1004.42 1005.63 1006.56 1007.51 1008.61 1009.43 1010.14 1011.32 1012.33 1013.40 1014.46 1015.49 1016.52 1017.45 1018.52 1019.24 1019.90 1020.50 1021.07 1021.58 1022.20
1010.12 1010.20 1009.81 1009.54 1008.81 1008.21 1007.59 1007.16 1006.47 1006.17 1005.56 1004.73 1004.42 1004.27 1003.13 1002.84 1002.26 1001.81 1001.22 1001.20 1001.57 1002.42 1003.46 1004.18 1004.73 1005.64 1006.78 1007.85 1008.94 1009.94 1011.05 1012.15 1013.31 1014.44 1015.60 1016.61 1017.49 1018.41 1019.46 1020.18 1020.70 1021.09 1021.44 1021.60
1009.01 1008.53 1009.41 1008.20 1007.38 1007.33 1006.57 1006.26 1005.92 1005.85 1005.24 1004.51 1004.03 1003.23 1002.54 1002.17 1001.48 1000.60 1000.57 1000.61 1001.09 1002.00 1002.85 1003.92 1004.79 1005.37 1006.49 1007.44 1008.51 1009.62 1010.60 1011.74 1013.01 1014.37 1015.46 1016.39 1017.34 1018.36 1019.31 1020.18 1020.90 1021.17 1021.40 1021.67
Thickness
5668 5651 5653 5653 5651 5654 5656 5652 5649 5659 5673 5667 5671 5682 5689 5697 5697 5695 5695 5695 5692 5688 5687 5688 5688 5685 5683 5678 5674 5669 5662 5657 5650 5641 5633 5625 5618 5609 5605 5600 5606 5609 5611 5608
5647 5649 5661 5652 5649 5649 5646 5643 5642 5653 5666 5659 5667 5680 5691 5695 5700 5703 5704 5694 5690 5683 5680 5680 5680 5677 5674 5670 5665 5661 5655 5649 5641 5635 5630 5626 5617 5609 5599 5597 5602 5610 5611 5608
5643 5650 5661 5649 5643 5640 5641 5638 5639 5640 5654 5661 5658 5672 5684 5696 5701 5705 5701 5696 5691 5687 5678 5673 5671 5669 5667 5662 5656 5653 5649 5642 5636 5632 5627 5623 5616 5607 5600 5602 5605 5611 5616 5613
5638 5652 5648 5638 5637 5638 5629 5647 5645 5642 5637 5629 5652 5641 5673 5689 5691 5693 5686 5683 5682 5680 5673 5668 5665 5664 5662 5655 5650 5645 5641 5638 5633 5630 5625 5620 5615 5611 5603 5601 5606 5609 5610 5609
5642 5644 5641 5633 5643 5635 5639 5646 5640 5640 5632 5632 5637 5626 5672 5676 5684 5683 5676 5674 5674 5673 5669 5663 5661 5660 5655 5650 5647 5644 5640 5636 5633 5627 5623 5617 5611 5608 5605 5605 5601 5602 5600 5607
5637 5649 5643 5641 5647 5642 5648 5635 5623 5616 5616 5607 5633 5626 5658 5666 5682 5680 5673 5669 5669 5666 5663 5659 5657 5655 5649 5647 5645 5641 5634 5630 5628 5622 5619 5615 5610 5607 5604 5603 5605 5604 5601 5604
5626 5631 5640 5644 5634 5638 5632 5621 5581 5595 5583 5601 5625 5616 5659 5675 5683 5682 5677 5668 5663 5660 5658 5657 5653 5649 5643 5643 5641 5635 5630 5626 5622 5618 5614 5611 5608 5606 5604 5602 5602 5603 5604 5602
5602 5604 5629 5643 5637 5629 5619 5616 5583 5582 5575 5590 5615 5612 5660 5681 5679 5680 5682 5671 5658 5654 5654 5653 5649 5645 5641 5641 5635 5628 5625 5620 5617 5613 5609 5607 5604 5601 5599 5597 5597 5599 5599 5601
5589 5594 5632 5640 5642 5633 5615 5598 5621 5589 5583 5578 5606 5637 5673 5671 5666 5669 5667 5664 5657 5650 5649 5647 5644 5641 5638 5636 5630 5623 5620 5614 5610 5607 5604 5602 5601 5597 5595 5592 5591 5592 5596 5598
5591 5585 5615 5627 5630 5624 5620 5617 5596 5581 5577 5583 5606 5620 5652 5670 5660 5656 5657 5659 5654 5646 5643 5642 5640 5636 5635 5631 5626 5619 5615 5609 5605 5603 5600 5597 5595 5592 5589 5586 5582 5584 5588 5593
5552 5573 5588 5610 5610 5609 5606 5600 5598 5594 5581 5581 5594 5625 5661 5671 5666 5658 5657 5656 5653 5647 5641 5638 5636 5632 5631 5627 5621 5615 5610 5605 5600 5598 5597 5595 5592 5588 5583 5580 5578 5577 5580 5587
5535 5532 5551 5584 5608 5619 5615 5611 5610 5590 5580 5574 5582 5615 5659 5663 5668 5662 5652 5653 5647 5644 5638 5634 5631 5629 5626 5623 5617 5611 5606 5603 5597 5595 5592 5590 5588 5584 5579 5576 5576 5576 5577 5582
5516 5516 5527 5557 5579 5579 5583 5591 5600 5591 5584 5575 5581 5613 5651 5654 5657 5655 5646 5643 5643 5638 5633 5628 5626 5626 5622 5621 5615 5609 5604 5601 5596 5593 5589 5587 5585 5583 5579 5576 5577 5574 5576 5580
5503 5500 5511 5525 5528 5527 5542 5553 5561 5571 5583 5599 5599 5618 5644 5650 5648 5641 5639 5636 5636 5635 5633 5629 5624 5624 5620 5618 5614 5608 5603 5599 5595 5591 5587 5584 5581 5580 5578 5576 5573 5574 5575 5577
5479 5479 5493 5502 5503 5504 5506 5527 5552 5551 5571 5594 5607 5611 5632 5643 5642 5634 5633 5633 5628 5630 5630 5629 5624 5623 5617 5614 5612 5607 5602 5597 5594 5589 5586 5583 5579 5576 5574 5573 5573 5571 5571 5571
5456 5454 5477 5481 5494 5503 5489 5507 5533 5547 5558 5578 5596 5611 5635 5641 5636 5630 5633 5634 5634 5631 5630 5628 5624 5623 5617 5613 5611 5606 5601 5596 5592 5588 5583 5580 5577 5574 5571 5570 5570 5569 5569 5569
5433 5434 5433 5420 5475 5489 5485 5530 5533 5545 5561 5571 5584 5620 5629 5631 5630 5633 5634 5637 5637 5635 5632 5628 5625 5623 5618 5613 5610 5606 5600 5595 5591 5586 5581 5578 5576 5573 5570 5569 5568 5565 5565 5565
5418 5417 5412 5397 5441 5433 5516 5536 5539 5540 5559 5569 5579 5599 5614 5624 5635 5643 5643 5644 5640 5640 5636 5631 5626 5621 5616 5613 5609 5605 5599 5593 5590 5585 5581 5578 5575 5573 5570 5567 5564 5561 5558 5558
5420 5405 5373 5381 5404 5442 5483 5517 5526 5534 5554 5566 5572 5586 5607 5615 5622 5632 5644 5650 5652 5649 5644 5638 5630 5623 5616 5612 5609 5603 5597 5593 5588 5584 5581 5577 5575 5571 5568 5563 5557 5555 5553 5551
5404 5403 5392 5355 5369 5419 5478 5497 5520 5528 5529 5565 5567 5571 5584 5598 5595 5624 5640 5646 5648 5645 5642 5637 5629 5621 5614 5612 5608 5602 5596 5592 5588 5584 5581 5577 5573 5570 5564 5558 5555 5550 5548 5546
5395 5402 5400 5393 5389 5412 5454 5480 5498 5505 5524 5541 5544 5550 5572 5582 5591 5611 5629 5639 5646 5642 5636 5635 5630 5622 5615 5610 5608 5601 5596 5592 5589 5584 5578 5573 5569 5563 5559 5555 5551 5546 5542 5540
5394 5391 5394 5405 5399 5411 5453 5467 5476 5488 5506 5523 5533 5537 5559 5577 5588 5603 5618 5631 5635 5636 5631 5634 5630 5624 5614 5610 5607 5602 5596 5593 5588 5581 5576 5570 5563 5560 5555 5551 5545 5541 5537 5531
5407 5407 5393 5405 5415 5437 5441 5450 5471 5475 5493 5514 5523 5537 5551 5569 5579 5593 5609 5624 5631 5633 5633 5630 5624 5620 5613 5608 5608 5604 5598 5593 5585 5579 5573 5566 5561 5556 5551 5547 5541 5536 5533 5528
5414 5415 5408 5415 5427 5434 5438 5447 5456 5467 5478 5500 5522 5534 5550 5563 5578 5589 5604 5619 5626 5626 5626 5627 5619 5617 5612 5608 5607 5605 5598 5592 5585 5578 5570 5563 5558 5551 5547 5543 5539 5535 5530 5523
5403 5403 5406 5402 5418 5426 5432 5438 5451 5456 5472 5495 5515 5526 5546 5555 5570 5586 5602 5613 5621 5622 5620 5622 5622 5619 5613 5611 5608 5601 5597 5591 5583 5575 5568 5562 5558 5551 5543 5539 5535 5532 5528 5527
5402 5414 5385 5404 5429 5420 5432 5438 5443 5447 5464 5487 5506 5524 5542 5554 5569 5589 5599 5611 5618 5618 5620 5618 5614 5615 5610 5610 5607 5600 5597 5591 5583 5574 5567 5563 5558 5550 5543 5536 5531 5531 5527 5524